Regional Weather Roundup
Issued by NWS

Home | Current Version | Previous Version | Text Only | Print | Product List | Glossary On
Versions: 1 2 3 4 5 6 7 8 9 10 11 12 13 14 15 16 17 18 19 20 21 22 23 24 25 26 27 28 29 30 31 32 33 34 35 36 37 38 39 40 41 42 43 44 45 46 47 48 49 50
000
ASUS43 KLSX 050159
RWRMO

WEATHER SUMMARY FOR MISSOURI
NATIONAL WEATHER SERVICE SPRINGFIELD MO
800 PM CST WED MAR 04 2015

NOTE: "FAIR" INDICATES FEW OR NO CLOUDS BELOW 12,000 FEET WITH NO
       SIGNIFICANT WEATHER AND/OR OBSTRUCTIONS TO VISIBILITY.
       CURRENT SKY AND/OR WEATHER CONDITIONS ARE NOT AVAILABLE FOR
       CHILLICOTHE AND FARMINGTON.

MOZ001>031-035>038-043-044-053-054-050300-
...NORTHERN AND WESTERN MISSOURI...

CITY           SKY/WX    TMP DP  RH WIND       PRES   REMARKS
KANSAS CTY INT CLOUDY    26   7  44 CALM      30.36R
KANSAS C DTWN  CLOUDY    29   5  36 CALM      30.37R
LEE`S SUMMIT   CLOUDY    27   6  41 CALM      30.36R
ST JOSEPH      MOCLDY    25   3  38 N12       30.40R WCI  14
CHILLICOTHE      N/A     27  12  53 CALM      30.36F

$$
MOZ066>068-077>081-088>096-101>105-050300-
...SOUTHWEST MISSOURI...

CITY           SKY/WX    TMP DP  RH WIND       PRES   REMARKS
SPRINGFIELD    CLOUDY    22   9  57 N8        30.30R WCI  12
JOPLIN         CLOUDY    24   8  50 N9        30.36R WCI  14

$$
MOZ032>034-039>042-045>050-055>058-069>072-050300-
...CENTRAL MISSOURI...

CITY           SKY/WX    TMP DP  RH WIND       PRES   REMARKS
COLUMBIA       CLOUDY    22   5  48 NE7       30.34F WCI  13
JEFFERSON CITY CLOUDY    24   1  36 N8        30.37F WCI  15
ROLLA          CLOUDY    21   7  54 N7        30.29F WCI  12
SEDALIA        CLOUDY    24   8  50 N5        30.34F WCI  18
OSAGE BEACH    CLOUDY    23   7  50 N3        30.33S

$$
MOZ051-052-059>065-050300-
...EAST CENTRAL MISSOURI...

CITY           SKY/WX    TMP DP  RH WIND       PRES   REMARKS
ST LOUIS INTL  CLOUDY    23   4  44 N10       30.36R WCI  12
SPIRIT OF STL  CLOUDY    23   4  44 N7        30.36R WCI  15
ST CHARLES     CLOUDY    22   5  48 N9        30.38R WCI  12

$$
MOZ072>076-082>087-097>100-106>115-050300-
...SOUTH CENTRAL AND SOUTHEAST MISSOURI...

CITY           SKY/WX    TMP DP  RH WIND       PRES   REMARKS
CAPE GIRARDEAU FOG       19  17  92 N14       30.32R VSB 3/4 WCI   6
FARMINGTON     CLOUDY    19   9  63 N12G18    30.30R WCI   7
POPLAR BLUFF   HAZE      21  16  81 N20G29    30.31R VSB 3/4 WCI   6
WEST PLAINS    CLOUDY    20  11  68 N9        30.25R WCI   9

$$


USA.gov is the U.S. government's official web portal to all federal, state and local government web resources and services.